STARLINK-36141 (67057 NORAD) Tracking and Keplerian Element Data

This shows tracking and keplerian element data for the satellite.

Feedback or suggestion? Click here.




ElementValue
Catalog67057
NameSTARLINK-36141
Epoch Orbit143
Epoch Day354.25003472
Epoch Year2025
RAAN136.1525
Inclination43.0002
Eccentricity0.0001718
Argument of Perigee265.4621
Mean Anonmoly16.6216
Mean Motion15.89600571
Decay Rate-0.01489774
L11 67057U 25294AD 25354.25003472 -.01489774 00000+0 -56415-2 0 9993
L22 67057 43.0002 136.1525 0001718 265.4621 16.6216 15.89600571 1434



Live tracking and technical data element details for STARLINK-36141 (NORAD 67057). STARLINK-36141 can be tracked NOW for your location showing map with azimuth and elevation plus other details from your city location.







IsCatalogInMostPopularTable: catalog: 67057, numindb: 47
Update: records affected: 1



GetName: 67057 STARLINK-36141

Hit Count: updated at: Tue, 17 Feb 2026 11:58:05 GMT